Wind_Speed
51 51 52 52 51 50 48 49 48 48 48 47 46 44 43 41 40 40 39 38 37 36 36 35 34 32 31 30 29 29 28 27 27 26 25 25 24 24 24 24 23 23 23
51 52 52 52 52 51 50 50 49 49 49 48 47 46 44 43 42 41 40 39 38 38 38 37 36 35 33 32 32 31 30 29 29 28 28 27 26 26 26 26 26 25 26
49 51 51 52 53 53 51 51 50 50 50 49 48 48 46 45 44 41 41 41 41 40 40 39 38 37 36 35 34 33 32 31 30 30 29 28 28 27 27 27 27 27 27
48 50 51 52 53 53 52 52 51 51 51 51 50 49 47 46 45 44 42 42 43 43 42 41 40 39 38 37 36 35 34 33 32 32 31 30 30 29 29 29 29 29 29
48 49 51 51 52 53 53 53 52 52 52 52 51 50 48 48 47 46 44 43 43 43 42 41 41 41 40 39 37 37 36 35 34 33 33 32 32 32 32 31 31 31 31
46 48 50 50 51 52 53 53 53 52 52 52 52 51 50 49 48 47 47 45 45 44 44 43 42 41 40 40 40 39 39 38 37 36 35 34 34 33 33 34 34 34 33
43 45 48 49 50 51 52 53 53 53 52 52 52 52 51 50 49 48 48 47 47 46 45 44 44 42 41 40 40 40 40 39 38 37 37 36 36 36 36 36 36 36 35
42 44 46 48 49 50 51 53 53 53 53 52 52 53 52 51 50 50 49 48 48 48 47 46 45 44 42 42 41 41 40 40 39 39 38 38 38 38 38 38 38 38 37
41 43 45 46 47 47 48 51 52 52 52 53 52 52 52 52 52 52 51 49 48 49 49 48 47 46 45 43 42 42 41 41 41 40 40 39 39 40 40 39 39 39 39
40 41 43 44 46 47 47 49 52 52 52 51 52 52 52 52 52 53 52 51 50 49 49 49 48 47 46 45 44 43 42 42 42 42 42 42 42 41 41 41 40 40 40
37 39 40 42 44 46 47 48 49 51 52 52 53 52 51 52 53 53 52 51 49 49 50 49 48 48 47 46 46 45 44 43 44 44 44 44 43 43 42 42 42 42 42
35 37 39 40 42 45 46 47 48 48 49 49 50 52 51 51 52 53 53 52 51 50 50 50 50 49 49 48 47 46 45 45 45 45 45 44 44 43 43 42 42 43 42
34 36 38 39 40 42 44 45 47 48 49 50 49 50 50 50 51 51 52 53 52 51 50 51 51 50 50 49 48 47 46 46 46 46 46 45 45 44 44 43 43 43 43
33 34 35 37 38 40 42 43 44 46 47 48 49 51 52 51 50 50 50 52 52 51 50 50 51 51 50 49 48 48 48 48 47 47 47 46 45 45 45 44 44 44 44
32 34 34 35 37 39 40 42 43 45 46 47 49 50 51 52 51 50 50 51 51 51 50 49 50 51 51 51 50 49 48 48 48 47 46 46 46 45 45 45 45 45 45
30 32 34 35 36 38 40 41 42 43 44 45 47 48 49 50 51 51 51 51 51 51 51 50 49 50 50 50 50 49 49 49 48 48 47 47 46 46 45 45 45 45 45
31 32 34 35 36 38 39 40 41 42 42 42 44 46 47 49 50 51 51 52 52 52 52 51 50 50 51 51 51 50 50 49 49 48 48 48 47 47 47 46 46 46 46
29 32 34 35 36 37 39 39 40 41 41 42 43 44 46 48 49 50 52 52 53 53 53 53 52 51 51 51 51 50 50 50 50 49 49 49 49 48 48 48 47 47 47
28 29 32 35 35 36 38 39 39 39 40 41 42 43 45 47 48 48 49 50 50 51 51 52 53 52 52 52 51 51 51 51 50 50 50 50 49 49 49 48 48 48 48
28 29 30 33 34 35 37 38 38 38 39 40 41 42 43 46 47 48 48 49 50 50 50 50 51 51 52 52 52 52 52 52 51 51 51 51 50 50 49 49 49 49 49
28 29 29 30 32 34 35 36 38 39 39 40 40 41 42 44 46 47 47 47 48 49 49 50 51 51 50 50 51 51 51 51 52 52 51 51 51 50 50 50 49 50 50
28 29 29 29 30 32 33 35 36 38 39 39 39 40 40 42 44 46 46 46 47 48 49 49 49 50 49 49 50 51 51 51 51 50 50 50 51 51 50 50 50 50 50
29 29 29 29 29 30 32 33 35 36 37 38 38 39 40 41 42 43 44 45 46 47 48 48 48 48 49 50 49 50 50 49 50 50 49 50 51 51 51 51 50 50 50
31 30 30 30 30 31 32 33 34 35 36 37 38 38 39 40 41 43 43 44 45 46 47 47 47 48 48 49 49 48 48 49 49 48 49 49 49 50 50 50 50 49 49
31 32 31 31 31 31 32 32 33 34 34 34 35 36 38 39 40 41 42 43 44 45 45 46 47 47 47 47 47 46 47 47 48 48 48 48 48 48 49 49 50 50 49
31 32 32 32 32 32 33 33 33 33 34 35 35 36 36 37 38 39 40 42 43 44 45 45 45 45 45 45 45 45 45 46 46 47 48 47 47 47 48 47 48 47 47
Wind_Direction
234 233 231 231 230 230 231 230 230 230 230 231 232 233 234 234 235 236 236 235 235 236 236 236 236 237 239 242 244 245 246 249 251 253 255 257 259 261 262 265 268 271 273
234 232 230 230 229 229 230 230 230 230 230 230 232 233 234 234 235 236 236 236 236 237 237 237 237 238 240 242 245 246 247 249 251 253 256 257 259 260 262 264 267 271 273
235 233 230 230 229 229 229 230 231 230 230 230 232 233 233 234 235 236 236 236 237 237 238 238 238 239 242 244 246 248 249 250 252 253 256 257 259 261 262 264 267 270 272
235 234 231 229 229 229 229 229 231 231 230 230 231 232 233 233 234 236 236 237 237 237 238 238 239 240 242 244 246 248 249 250 252 253 255 257 259 261 262 264 267 270 272
236 234 232 229 229 229 229 229 230 232 232 231 231 231 232 234 234 236 236 236 236 236 237 239 240 242 243 244 246 249 250 250 252 253 255 257 259 261 263 264 266 269 271
237 235 233 231 230 229 228 228 228 230 231 231 231 232 233 234 235 237 238 236 237 238 238 239 241 242 244 246 247 249 250 251 252 253 255 258 260 262 264 266 267 268 270
236 234 233 232 230 229 228 228 228 230 231 231 232 233 234 234 235 236 238 237 237 238 239 240 241 243 245 247 248 250 250 251 252 253 256 258 261 264 266 267 268 269 271
236 234 231 231 230 229 228 228 228 230 231 232 233 234 235 235 236 237 238 239 238 239 240 241 242 243 245 247 248 250 249 251 252 255 257 259 261 264 267 268 269 270 271
235 234 232 230 229 229 228 228 228 230 231 232 234 235 236 236 237 237 238 239 240 240 240 241 243 244 245 246 248 249 250 251 253 255 257 260 262 264 266 268 269 269 270
235 235 233 231 230 229 229 228 229 230 230 231 233 235 235 236 237 237 238 239 240 240 241 242 243 244 245 247 249 250 251 253 254 256 258 261 263 264 266 267 268 269 271
234 233 232 231 230 230 229 229 229 230 231 232 233 235 236 236 237 237 237 239 240 241 241 242 243 244 245 247 250 251 252 254 256 257 259 261 263 265 266 267 267 268 269
233 232 230 231 232 231 230 230 230 230 231 232 233 234 236 236 236 237 238 238 239 241 241 242 244 246 247 249 251 252 253 254 256 258 260 262 263 264 266 267 267 268 269
233 231 231 232 233 231 230 231 230 231 232 232 232 233 235 236 237 238 239 239 239 240 242 243 244 246 248 250 251 253 254 255 256 258 260 261 262 263 265 266 266 268 269
234 232 231 232 233 232 232 232 232 233 234 232 232 233 236 237 238 239 240 240 240 241 242 244 244 246 248 250 253 254 255 256 257 258 259 261 262 263 264 265 266 267 268
232 231 231 232 234 235 234 234 234 235 235 235 234 235 236 238 240 240 241 241 242 242 243 244 245 247 249 251 253 254 255 256 257 258 259 260 261 262 263 265 266 267 269
231 230 231 234 235 236 237 237 237 237 238 239 238 237 237 239 240 241 242 242 242 244 244 245 247 248 249 251 253 255 255 256 256 257 258 259 260 262 263 265 267 268 269
234 232 233 236 237 237 237 238 238 238 239 240 240 239 238 239 240 241 243 243 244 245 246 247 249 251 252 253 254 255 255 255 255 257 259 259 260 262 264 265 267 268 269
238 237 237 237 238 238 238 238 239 239 241 242 242 241 240 239 241 242 243 244 245 247 247 248 250 252 253 254 255 254 255 256 256 258 259 259 260 262 264 265 266 268 269
241 239 239 238 238 239 239 240 241 241 242 242 242 243 242 241 241 243 244 244 245 247 248 249 250 251 252 254 255 256 255 255 256 257 258 259 260 262 263 264 266 267 268
245 243 243 242 242 242 240 241 242 242 243 243 244 245 244 242 242 243 243 244 245 246 248 249 249 251 253 253 254 256 256 256 256 257 258 259 260 261 263 264 265 266 267
246 245 244 245 244 243 243 243 242 243 245 245 246 246 247 245 244 244 244 244 245 246 248 249 250 251 253 254 255 255 256 257 257 257 257 258 259 261 263 264 264 265 267
247 246 245 245 244 244 244 244 243 244 245 246 246 247 247 246 245 244 245 245 245 246 247 249 250 251 253 254 254 255 256 256 257 257 257 258 260 261 262 263 265 265 267
248 247 247 245 245 245 245 245 245 245 246 247 247 247 248 248 247 246 246 246 246 246 247 248 250 252 252 254 255 255 256 256 257 257 258 259 260 261 262 264 264 265 266
249 248 248 246 246 247 247 246 246 247 248 248 248 248 249 250 249 248 247 247 247 247 248 249 250 252 253 254 254 255 256 256 257 257 258 259 259 261 262 263 263 264 266
249 249 249 249 249 248 248 248 248 248 248 247 247 248 249 250 250 249 249 249 249 250 250 250 251 252 253 255 256 256 256 256 256 257 258 258 259 260 262 263 263 264 265
250 250 250 250 250 250 249 250 250 250 250 250 250 250 251 251 251 251 251 251 251 251 251 252 253 254 254 255 255 256 256 256 257 257 257 259 260 262 262 263 263 264 266
Height
5679 5685 5692 5699 5706 5713 5719 5725 5731 5737 5743 5748 5754 5759 5764 5769 5773 5777 5781 5784 5788 5792 5796 5800 5804 5807 5810 5813 5816 5819 5821 5823 5826 5828 5829 5831 5832 5833 5834 5835 5836 5837 5837
5667 5673 5680 5687 5695 5702 5709 5715 5721 5727 5733 5739 5745 5750 5755 5760 5765 5768 5772 5777 5781 5785 5789 5793 5797 5800 5804 5807 5810 5813 5815 5817 5820 5822 5823 5825 5827 5828 5829 5830 5831 5831 5831
5655 5662 5669 5676 5684 5691 5698 5705 5711 5717 5723 5730 5735 5740 5746 5751 5756 5760 5764 5768 5772 5777 5781 5785 5789 5793 5797 5800 5803 5806 5809 5811 5813 5815 5817 5819 5821 5822 5823 5824 5824 5825 5825
5644 5651 5658 5666 5673 5680 5688 5695 5701 5707 5714 5720 5726 5731 5737 5742 5748 5752 5756 5760 5764 5769 5773 5777 5782 5786 5789 5792 5796 5799 5801 5804 5806 5808 5810 5812 5814 5815 5817 5818 5818 5818 5819
5634 5640 5647 5655 5662 5670 5677 5684 5691 5697 5704 5709 5715 5720 5726 5732 5738 5743 5747 5751 5756 5760 5765 5769 5774 5778 5781 5785 5788 5791 5794 5796 5799 5801 5803 5805 5806 5808 5809 5810 5811 5812 5812
5624 5630 5637 5644 5651 5658 5666 5673 5680 5686 5693 5699 5705 5710 5716 5722 5727 5732 5737 5742 5747 5751 5756 5761 5765 5769 5773 5776 5780 5783 5786 5788 5791 5793 5795 5797 5798 5800 5801 5802 5803 5804 5804
5615 5621 5627 5633 5640 5647 5655 5662 5669 5676 5683 5689 5695 5701 5706 5711 5717 5722 5726 5731 5737 5742 5747 5751 5756 5760 5764 5768 5771 5774 5777 5779 5782 5785 5787 5789 5790 5791 5792 5793 5795 5795 5796
5606 5611 5617 5624 5630 5637 5644 5651 5659 5665 5672 5679 5685 5690 5695 5701 5706 5711 5716 5721 5727 5732 5737 5742 5746 5751 5755 5758 5761 5765 5767 5770 5773 5775 5778 5779 5781 5782 5783 5784 5785 5786 5787
5596 5602 5609 5615 5622 5628 5634 5641 5649 5655 5662 5668 5674 5679 5685 5690 5695 5700 5705 5710 5716 5722 5727 5732 5737 5741 5745 5748 5752 5755 5758 5761 5763 5766 5768 5770 5771 5772 5774 5774 5775 5777 5777
5589 5595 5601 5607 5613 5619 5625 5631 5638 5645 5651 5657 5663 5668 5673 5678 5683 5688 5695 5700 5706 5711 5717 5722 5726 5730 5734 5738 5741 5745 5748 5750 5753 5755 5758 5759 5761 5762 5763 5764 5765 5766 5767
5582 5588 5593 5599 5605 5610 5616 5622 5629 5634 5640 5647 5653 5658 5662 5667 5672 5678 5684 5690 5695 5700 5706 5711 5716 5720 5724 5728 5731 5734 5737 5740 5742 5745 5747 5748 5750 5751 5752 5753 5754 5755 5756
5575 5580 5585 5591 5596 5602 5607 5613 5619 5625 5630 5636 5642 5647 5652 5657 5662 5667 5673 5679 5684 5689 5694 5700 5705 5709 5713 5717 5720 5723 5726 5729 5731 5733 5735 5737 5738 5740 5741 5742 5743 5744 5745
5568 5572 5578 5583 5588 5593 5598 5603 5610 5615 5620 5625 5631 5637 5642 5646 5652 5657 5662 5668 5673 5678 5683 5688 5693 5697 5701 5705 5709 5712 5714 5717 5719 5722 5723 5725 5727 5728 5730 5731 5732 5733 5733
5562 5566 5570 5575 5580 5585 5589 5594 5599 5605 5610 5615 5620 5626 5631 5636 5641 5646 5651 5657 5662 5667 5671 5676 5681 5686 5690 5693 5696 5699 5702 5705 5707 5709 5711 5713 5715 5716 5718 5719 5720 5721 5722
5555 5559 5563 5568 5573 5577 5581 5585 5590 5595 5600 5605 5610 5615 5620 5625 5631 5636 5641 5646 5651 5656 5661 5665 5670 5674 5678 5681 5684 5687 5690 5693 5695 5697 5699 5701 5703 5704 5706 5707 5708 5709 5710
5549 5552 5557 5561 5565 5569 5573 5577 5582 5586 5591 5595 5600 5604 5609 5615 5620 5625 5631 5636 5640 5645 5650 5654 5658 5662 5666 5669 5672 5675 5678 5680 5683 5685 5687 5689 5691 5692 5694 5695 5696 5697 5698
5542 5546 5550 5553 5557 5561 5564 5569 5573 5577 5581 5585 5589 5594 5599 5604 5609 5614 5619 5624 5629 5633 5638 5642 5646 5650 5654 5657 5660 5663 5665 5668 5670 5673 5675 5677 5678 5680 5682 5683 5684 5685 5686
5536 5539 5542 5545 5549 5552 5556 5559 5564 5568 5572 5576 5580 5584 5589 5594 5599 5603 5607 5612 5617 5621 5625 5630 5634 5638 5641 5644 5647 5650 5652 5655 5658 5660 5662 5664 5666 5667 5669 5671 5672 5673 5673
5529 5532 5535 5538 5541 5544 5547 5551 5554 5559 5563 5567 5571 5574 5578 5583 5587 5591 5596 5600 5604 5608 5612 5617 5621 5625 5628 5631 5634 5636 5639 5642 5645 5647 5649 5651 5653 5655 5656 5658 5659 5660 5661
5522 5525 5527 5530 5533 5535 5539 5542 5546 5549 5553 5557 5561 5564 5568 5571 5576 5580 5584 5588 5592 5595 5599 5603 5607 5611 5615 5618 5620 5623 5625 5629 5632 5634 5636 5638 5640 5642 5642 5644 5646 5647 5648
5515 5517 5520 5522 5525 5527 5530 5533 5537 5540 5544 5547 5551 5554 5557 5560 5564 5568 5572 5576 5580 5583 5587 5591 5595 5598 5601 5604 5607 5609 5612 5614 5617 5620 5622 5625 5627 5628 5629 5631 5632 5634 5634
5508 5510 5512 5515 5517 5519 5522 5525 5528 5531 5534 5537 5541 5544 5546 5549 5552 5556 5560 5563 5567 5571 5574 5578 5581 5585 5588 5590 5593 5596 5598 5600 5603 5606 5608 5611 5613 5614 5616 5617 5619 5620 5620
5500 5502 5505 5507 5509 5511 5513 5516 5519 5521 5524 5527 5530 5533 5536 5538 5541 5545 5548 5551 5555 5559 5562 5565 5569 5572 5575 5578 5580 5582 5585 5587 5589 5592 5594 5597 5599 5600 5602 5604 5605 5606 5607
5492 5494 5497 5499 5501 5503 5505 5507 5509 5512 5515 5517 5520 5522 5525 5528 5530 5533 5537 5540 5543 5546 5549 5553 5556 5559 5562 5565 5567 5569 5571 5574 5576 5578 5581 5583 5585 5586 5588 5590 5591 5592 5593
5484 5486 5489 5491 5492 5494 5496 5498 5500 5502 5505 5507 5510 5512 5514 5517 5519 5522 5525 5528 5531 5534 5537 5540 5544 5547 5550 5552 5554 5555 5558 5560 5563 5564 5567 5569 5571 5573 5575 5576 5577 5578 5579
5476 5478 5480 5482 5484 5485 5487 5489 5491 5493 5495 5498 5500 5502 5504 5507 5509 5512 5514 5516 5520 5522 5525 5528 5531 5534 5537 5539 5541 5543 5545 5547 5549 5551 5554 5556 5558 5560 5561 5563 5563 5564 5565